STARLINK-1677, 46576

Orbit data source: Space-Track

STARLINK-1677, 46576 is a payload satellite owned by SpaceX/Seattle (US) in LEO that was launched on Tue, 06 Oct 2020 UTC via an FALCON 9 launch vehicle from the Air Force Eastern Test Range (AFETR). Payload-class satellites include a variety of spacecraft equipped with specific instruments for various scientific and technological missions. These include communications satellites like Starlink; space stations such as the ISS; scientific satellites like the Hubble; Earth observation satellites from companies like Planet Labs, Umbra, and HawkEye 360; GPS; miniature CubeSats for education and research; and military/defense satellites.

Loading next visibility...
Identifier
46576, 2020-070AW
Orbit
LEO
Country
Flag of USUS
Related business
Manufacturer
SpaceX/Seattle
Mission
Partially operational Commercial Communications
Bus & Motor
STARLINK, Unknown motor
Mass
260 kg wet, ~248 kg dry
Launch date (UTC)
2020-10-06 (5 years ago)
Launch vehicle
FALCON 9
Launch site
Air Force Eastern Test Range (AFETR)
Object type
Payload
Rocket body
Debris
Shape & HBR
Box + 1 Pan, 10.1 m
Radar Cross Section
13.562 m², Large (>1 m²)

Expand to show TLE details & history
Last TLE update: 21 hours ago

TLE from 21 hours ago
0 STARLINK-1677
1 46576U 20070AW  25304.50078919  .00071989  00000-0  23297-2 0  9999
2 46576  53.0521  19.6502 0001361  41.6434 318.4669 15.31415346280271
Epoch: 2025-10-31T12:01Z
TLE epoch observation values (Epoch: 2025-10-31T12:01:08.186Z)
Latitude
-0.00003°
Longitude
159.32175°
Altitude
471.779 km
Speed
7.632 km/s
True Right ascension
01h 18m 36s
True Declination
0° 00' 00"
Sunlit
Object was in full shadow at epoch
Visualization orbit readout
Latitude
Unknown
Longitude
Unknown
Altitude
Unknown
Speed
Unknown
Apparent Right ascension
Unknown
Apparent Declination
Unknown
Sunlit
N/A
Visualization observer readout
Local Sidereal Time
04:30:35
Azimuth
Unknown
Elevation
Unknown
Doppler factor
Unknown
Orbital elements
Apogee altitude
472.795 km
Perigee altitude
470.93 km
Semi-major axis
6,850 km
Eccentricity
0.00014
Inclination
53.0521°
RAAN
19.6502°
Arg. of periapsis
41.6434°
True anomaly
318.45656°
Mean anomaly
318.4669°
Eccentric anomaly
318.46173°
Mean motion
3.82831 °/min
Orbital period
94.04 mins
BSTAR
0.0023297
Loading maneuver chart data...
Computing Atmospheric mass density...

Documentation

Showing up to 5 results
|